Content
SEND FEEDBACK

Daily
Averages
Monthly
Summary
United States of America

JUDITH GAP, MONTANA


Home > North America > United States > Montana
Elevation: 5427 feet     Latitude: 46 41N     Longitude: 109 29W

WEATHER
 
SELECT A DAY
Number of Records: 263,291;   Date Range: 1/1/95 - 7/29/14
 
SHARE

PRINT THIS DATA

[ ← Previous Day ]
WEATHER ALMANAC - FEBRUARY 13, 2013
[ Next Day → ]
[ °C ]   °F
Weather ElementAverageHighLow
Temperature29.7 °F39 °F (11:54 am)21.2 °F (11:24 pm)
Dewpoint24.9 °F28.9 °F (5:54 pm)19 °F (10:54 pm)
Humidity83.6 %100 % (6:51 pm)48 % (1:54 pm)
Barometer30.00 in30.23 in (11:54 pm)29.84 in (1:54 am)
Wind Speed12.4 mph25.3 mph (2:54 am)
Wind Gust33.4 mph (2:54 am)
Weather ElementAverage
Visibility4.5 mi
Wind DirectionWNW (290 °)

Weather ElementTotal
Precipitation0.29 in
Heating Degree Days34.9 (Base 65)
Averaged from 57 records on February 13, 2013
WEATHER CONDITIONS BREAKOUT
WIND DIRECTION BREAKOUT
WEATHER BY HOUR - FEBRUARY 13, 2013
[ °C ]   °F
Local TimeTemperatureDewpointHumidityBarometerVisibilityWind DirectionWind SpeedGust SpeedPrecipitationEventsConditions
1:54 AM36.0 °F25.0 °F64 %29.84 in10.0 miWest (270°)23.0 mphClear
2:54 AM37.0 °F24.1 °F59 %29.84 in10.0 miWest (270°)25.3 mph33.4 mphClear
3:54 AM36.0 °F24.1 °F62 %29.84 in10.0 miWest (270°)21.9 mphMostly Cloudy
4:54 AM35.1 °F24.1 °F64 %29.84 in10.0 miWest (270°)19.6 mphOvercast
5:54 AM36.0 °F24.1 °F62 %29.85 in10.0 miWest (260°)15.0 mphOvercast
6:54 AM37.0 °F24.1 °F59 %29.86 in10.0 miWest (260°)20.7 mphOvercast
7:54 AM35.1 °F24.1 °F64 %29.86 in10.0 miWest (270°)18.4 mphOvercast
8:54 AM37.0 °F26.1 °F65 %29.86 in10.0 miWest (280°)21.9 mph28.8 mphOvercast
9:54 AM37.9 °F27.0 °F65 %29.89 in10.0 miWNW (290°)24.2 mph29.9 mphOvercast
10:54 AM37.0 °F27.0 °F67 %29.91 in10.0 miWNW (300°)18.4 mphOvercast
11:54 AM39.0 °F28.0 °F65 %29.91 in10.0 miWNW (300°)19.6 mph27.6 mph0.00 inScattered Clouds
12:54 PM39.0 °F21.0 °F49 %29.91 in10.0 miNW (320°)17.3 mph28.8 mphMostly Cloudy
1:54 PM37.9 °F19.9 °F48 %29.93 in10.0 miNW (320°)16.1 mph24.2 mph0.00 inOvercast
2:44 PM33.8 °F26.6 °F75 %29.92 in1.8 miNNW (340°)17.3 mph33.4 mph0.00 inSnowLight Snow
2:50 PM33.8 °F26.6 °F75 %29.92 in3.0 miNNW (340°)13.8 mph27.6 mph0.00 inSnowLight Snow
2:54 PM33.1 °F28.0 °F82 %29.99 in7.0 miNorth (350°)13.8 mph23.0 mph0.00 inSnowLight Snow
3:54 PM34.0 °F26.1 °F73 %29.99 in4.0 miWNW (300°)9.2 mph21.9 mph0.00 inSnowLight Snow
4:52 PM32.0 °F26.6 °F80 %29.95 in2.0 miWest (280°)9.2 mph0.00 inSnowLight Snow
4:54 PM32.0 °F26.1 °F79 %30.02 in2.0 miWNW (300°)8.1 mph0.00 inSnowLight Snow
5:00 PM32.0 °F26.6 °F80 %29.95 in3.0 miWNW (300°)9.2 mph0.00 inSnowLight Snow
5:31 PM30.2 °F26.6 °F86 %29.96 in2.0 miNW (310°)10.4 mph0.00 inSnowLight Snow
5:36 PM30.2 °F28.4 °F93 %29.96 in3.0 miNW (310°)6.9 mph0.00 inSnowLight Snow
5:42 PM30.2 °F28.4 °F93 %29.97 in1.8 miNW (310°)6.9 mph0.00 inSnowLight Snow
5:54 PM30.0 °F28.9 °F96 %30.04 in1.2 miWNW (300°)4.6 mph0.00 inSnowLight Snow
6:03 PM30.2 °F28.4 °F93 %29.97 in3.0 miWest (280°)4.6 mph0.00 inSnowLight Snow
6:19 PM30.2 °F28.4 °F93 %29.98 in2.0 miWNW (290°)5.8 mph0.00 inSnowLight Snow
6:32 PM30.2 °F28.4 °F93 %29.98 in2.5 miWNW (290°)6.9 mph0.00 inSnowLight Snow
6:42 PM30.2 °F28.4 °F93 %29.99 in4.0 miWNW (290°)8.1 mph0.00 inSnowLight Snow
6:51 PM28.4 °F28.4 °F100 %29.98 in3.0 miWest (280°)6.9 mph0.00 inSnowLight Snow
6:54 PM28.9 °F28.0 °F96 %30.06 in4.0 miWNW (290°)8.1 mph0.00 inSnowLight Snow
7:01 PM28.4 °F28.4 °F100 %29.99 in4.0 miWest (280°)8.1 mph0.00 inSnowLight Snow
7:10 PM28.4 °F28.4 °F100 %29.99 in4.0 miWest (280°)6.9 mph0.00 inSnowLight Snow
7:30 PM28.4 °F28.4 °F100 %30.00 in5.0 miWest (280°)6.9 mph0.00 inOvercast
7:50 PM28.4 °F28.4 °F100 %30.00 in9.0 miWest (270°)6.9 mph0.00 inOvercast
7:54 PM28.0 °F28.0 °F100 %30.08 in10.0 miWest (270°)9.2 mph0.00 inOvercast
8:02 PM28.4 °F26.6 °F93 %30.00 in10.0 miWest (270°)10.4 mphOvercast
8:14 PM28.4 °F26.6 °F93 %30.00 in1.8 miWNW (290°)6.9 mph0.01 inSnowLight Snow
8:24 PM28.4 °F26.6 °F93 %30.01 in2.5 miWest (280°)8.1 mph0.01 inSnowLight Snow
8:38 PM28.4 °F26.6 °F93 %30.01 in0.8 miWNW (290°)8.1 mph0.01 inSnowLight Snow
8:46 PM26.6 °F26.6 °F100 %30.03 in0.5 miNorth (350°)18.4 mph21.9 mph0.02 inFog-SnowSnow
8:54 PM25.0 °F24.1 °F96 %30.12 in0.5 miNorth (10°)15.0 mph21.9 mph0.03 inFog-SnowSnow
9:01 PM24.8 °F24.8 °F100 %30.04 in0.5 miNorth (10°)15.0 mph0.01 inFog-SnowSnow
9:11 PM24.8 °F24.8 °F100 %30.05 in0.2 miNorth (360°)12.7 mph0.02 inFog-SnowHeavy Snow
9:20 PM24.8 °F23.0 °F93 %30.06 in0.5 miNorth (350°)19.6 mph23.0 mph0.03 inFog-SnowSnow
9:26 PM24.8 °F21.2 °F86 %30.06 in1.0 miNorth (360°)18.4 mph24.2 mph0.03 inSnowLight Snow
9:35 PM24.8 °F21.2 °F86 %30.07 in1.8 miNNW (340°)13.8 mph0.03 inSnowLight Snow
9:42 PM24.8 °F21.2 °F86 %30.07 in2.0 miNorth (350°)17.3 mph20.7 mph0.03 inSnowLight Snow
9:50 PM24.8 °F21.2 °F86 %30.08 in1.0 miNorth (350°)13.8 mph23.0 mph0.03 inSnowLight Snow
9:54 PM24.1 °F21.0 °F88 %30.17 in1.0 miNorth (350°)12.7 mph21.9 mph0.03 inSnowLight Snow
10:13 PM24.8 °F19.4 °F80 %30.10 in3.0 miNorth (360°)13.8 mph0.00 inSnowLight Snow
10:54 PM23.0 °F19.0 °F85 %30.21 in2.0 miNW (320°)9.2 mph0.00 inSnowLight Snow
10:58 PM23.0 °F19.4 °F86 %30.12 in1.8 miNW (310°)5.8 mph0.00 inSnowLight Snow
11:11 PM23.0 °F19.4 °F86 %30.12 in2.0 miWNW (300°)8.1 mph0.00 inSnowLight Snow
11:16 PM23.0 °F19.4 °F86 %30.12 in3.0 miWNW (300°)8.1 mph0.00 inSnowLight Snow
11:24 PM21.2 °F19.4 °F93 %30.13 in2.5 miWest (280°)8.1 mph0.00 inSnowLight Snow
11:41 PM21.2 °F19.4 °F93 %30.13 in5.0 miWSW (250°)5.8 mph0.00 inSnowLight Snow
11:54 PM21.9 °F19.9 °F92 %30.23 in4.0 miSW (230°)8.1 mph0.00 inSnowLight Snow
Hourly data recorded from KLWT, located miles away from Judith Gap, Montana







STORIES FROM OUR PARTNERS